This is the latest recevied weather packets stored in our database for station/object 9W2IJB-3. If no packets are shown the sender has not sent any weather packets the latest 10 day(s).
| Time | Temp. | Humidity | Pressure | Rain* | Wind** | Luminosity | Snow |
|---|---|---|---|---|---|---|---|
| 1777636681 | 25.56° C | 74% | 1020.6 hPa | - | - | - | - |
| 1777635481 | 25.56° C | 74% | 1020.2 hPa | - | - | - | - |
| 1777634282 | 25.56° C | 74% | 1020.2 hPa | - | - | - | - |
| 1777633081 | 25.56° C | 75% | 1019.8 hPa | - | - | - | - |
| 1777631980 | 25.56° C | 75% | 1019.8 hPa | - | - | - | - |
| 1777631881 | 25.56° C | 75% | 1019.8 hPa | - | - | - | - |
| 1777631301 | 25.56° C | 75% | 1020.1 hPa | - | - | - | - |
| 1777630682 | 25.56° C | 75% | 1020.1 hPa | - | - | - | - |
| 1777629481 | 25.56° C | 74% | 1019.9 hPa | - | - | - | - |
| 1777628281 | 25.56° C | 75% | 1019.8 hPa | - | - | - | - |
| 1777627081 | 25.56° C | 74% | 1019.6 hPa | - | - | - | - |
| 1777625881 | 25.56° C | 75% | 1019.7 hPa | - | - | - | - |
| 1777624680 | 26.11° C | 75% | 1019.5 hPa | - | - | - | - |
| 1777623482 | 26.11° C | 76% | 1020.1 hPa | - | - | - | - |
| 1777622280 | 25.56° C | 76% | 1019.5 hPa | - | - | - | - |
| 1777621080 | 25.56° C | 76% | 1019.6 hPa | - | - | - | - |
| 1777619880 | 25.56° C | 75% | 1019.9 hPa | - | - | - | - |
| 1777618680 | 25.56° C | 74% | 1020.4 hPa | - | - | - | - |
| 1777617480 | 25.56° C | 75% | 1020.6 hPa | - | - | - | - |
| 1777616280 | 25° C | 75% | 1021.1 hPa | - | - | - | - |
| 1777615080 | 25° C | 74% | 1021.1 hPa | - | - | - | - |
| 1777613880 | 25° C | 73% | 1021.6 hPa | - | - | - | - |
| 1777611481 | 29.44° C | 70% | 1021.4 hPa | - | - | - | - |
| 1777610281 | 30° C | 70% | 1021.8 hPa | - | - | - | - |
| 1777609081 | 29.44° C | 71% | 1022.2 hPa | - | - | - | - |
* Rain since midnight (hover to see other rain measurements)
** Current wind speed in m/s (hover to see current wind gust speed)